Location: Beneden-Haastrecht
(52.0012°N, 4.7557°E)
Time: 02:36:28
(UTC+00:00)

DMSP B5D1-3 - Pass Details

Date: 24 October 2020
Orbit: 768 x 780 km, 98.5° (Epoch: 27 November)

Event Time Altitude Azimuth Distance (km) Brightness Sun altitude
Rises 18:34:09 0° 16° (NNE) 3,268 7.7 -20.1°
Reaches altitude 10° 18:36:29 10° 18° (NNE) 2,337 6.9 -20.5°
Maximum altitude 18:41:38 73° 104° (ESE) 815 4.4 -21.3°
Drops below altitude 10° 18:46:47 10° 189° (S) 2,327 7.0 -22.0°
Sets 18:49:05 0° 192° (SSW) 3,251 7.8 -22.4°
